Andrews, NC

7:17 PM EST on November 21, 2019 (GMT -0500)
Andrews

Weather History for KRHP - October, 2019

Change the Weather History Date:

Tuesday, October 22, 2019

  Actual Average (WUND) Record (WUND)
Temperature  
Mean Temperature 54 °F -  
Max Temperature 68 °F - - (-1)
Min Temperature 39 °F - - (-1)
Degree Days  
Heating Degree Days 11    
Growing Degree Days 4 (Base 50)    
Moisture  
Dew Point 51 °F    
Average Humidity 76    
Maximum Humidity 100    
Minimum Humidity 34    
Precipitation  
Precipitation 0.17 in - - ()
Sea Level Pressure  
Sea Level Pressure 29.95 in    
Wind  
Wind Speed 7 mph (SW)    
Max Wind Speed 17 mph    
Max Gust Speed 29 mph    
Visibility 10 miles    
Events Rain    
Averages and records for this station are not official NWS values.
T = Trace of Precipitation, MM = Missing Value Source: NWS Daily Summary

Daily Weather History Graph

Daily Weather History Graph

Search for Another Location

Airport or City:

Astronomy

Oct. 22, 2019 Rise Set
Actual Time 7:47 AM EDT 6:51 PM EDT
Civil Twilight 7:21 AM EDT 7:17 PM EDT
Nautical Twilight 6:51 AM EDT 7:47 PM EDT
Astronomical Twilight 6:22 AM EDT 8:16 PM EDT
Moon 1:14 AM EDT 3:43 PM EDT
Length of Visible Light 11h 56m
Length of Day
11h 04m
Last Quarter, 37% of the Moon is Illuminated
Oct 22
Last Quarter
Oct 27
New
Nov 4
First Quarter
Nov 12
Full
Nov 19
Last Quarter

Hourly Weather History & Observations

Time (EDT) Temp. Dew Point Humidity Pressure Visibility Wind Dir Wind Speed Gust Speed Precip Events Conditions
12:15 AM 66.2 °F 60.6 °F 82% 29.95 in 10.0 mi WSW 6.9 mph - N/A   Overcast
12:35 AM 66.2 °F 60.4 °F 82% 29.93 in 10.0 mi SW 4.6 mph - N/A   Overcast
12:55 AM 67.1 °F 60.3 °F 79% 29.93 in 10.0 mi SW 6.9 mph - N/A   Overcast
1:15 AM 67.6 °F 60.3 °F 77% 29.93 in 10.0 mi SW 8.1 mph - N/A   Overcast
1:35 AM 67.5 °F 60.1 °F 77% 29.92 in 10.0 mi SSW 11.5 mph 20.7 mph N/A   Overcast
1:55 AM 68.0 °F 60.1 °F 76% 29.91 in 10.0 mi SW 11.5 mph 20.7 mph N/A   Overcast
2:15 AM 68.2 °F 59.9 °F 75% 29.90 in 10.0 mi WSW 3.5 mph 19.6 mph N/A   Overcast
2:35 AM 68.2 °F 59.9 °F 75% 29.89 in 10.0 mi SSW 5.8 mph 21.9 mph N/A   Overcast
2:55 AM 68.0 °F 60.3 °F 76% 29.89 in 10.0 mi SSW 16.1 mph 28.8 mph N/A   Overcast
3:15 AM 68.0 °F 60.4 °F 77% 29.89 in 10.0 mi SSW 8.1 mph 18.4 mph N/A   Overcast
3:35 AM 68.0 °F 60.8 °F 78% 29.88 in 10.0 mi South 10.4 mph 16.1 mph N/A   Overcast
3:55 AM 68.0 °F 61.0 °F 78% 29.88 in 10.0 mi SW 9.2 mph - N/A   Overcast
4:15 AM 67.8 °F 61.2 °F 79% 29.87 in 10.0 mi SW 5.8 mph - N/A   Overcast
4:35 AM 68.0 °F 61.5 °F 80% 29.86 in 10.0 mi SSW 6.9 mph - N/A   Overcast
4:55 AM 68.0 °F 61.7 °F 80% 29.85 in 10.0 mi SSW 4.6 mph - N/A   Overcast
5:15 AM 68.0 °F 61.7 °F 80% 29.85 in 10.0 mi South 4.6 mph 16.1 mph N/A   Overcast
5:35 AM 68.4 °F 62.1 °F 80% 29.85 in 10.0 mi South 6.9 mph - N/A   Overcast
5:55 AM 68.9 °F 61.9 °F 78% 29.85 in 10.0 mi SSW 5.8 mph - N/A   Overcast
6:15 AM 63.5 °F 62.6 °F 97% 29.87 in 7.0 mi SW 9.2 mph - 0.02 in Rain Light Rain
6:35 AM 60.4 °F 60.4 °F 100% 29.88 in 7.0 mi WSW 5.8 mph - 0.12 in Rain Light Rain
6:55 AM 59.9 °F 59.9 °F 100% 29.89 in 10.0 mi West 5.8 mph - 0.12 in   Drizzle
7:15 AM 59.2 °F 59.2 °F 100% 29.90 in 7.0 mi West 5.8 mph - 0.01 in   Drizzle
7:35 AM 58.1 °F 58.1 °F 100% 29.92 in 7.0 mi West 6.9 mph - 0.03 in Rain Light Rain
7:55 AM 57.4 °F 57.4 °F 100% 29.92 in 10.0 mi WNW 3.5 mph - 0.03 in Rain Light Rain
8:15 AM 57.4 °F 57.4 °F 100% 29.93 in 10.0 mi Calm Calm - N/A   Light Drizzle
8:35 AM 57.2 °F 57.2 °F 100% 29.94 in 10.0 mi Calm Calm - 0.01 in   Drizzle
8:55 AM 57.2 °F 57.0 °F 99% 29.95 in 10.0 mi WSW 3.5 mph - 0.02 in   Light Drizzle
9:15 AM 56.5 °F 56.5 °F 100% 29.95 in 10.0 mi WSW 6.9 mph - N/A Rain Light Rain
9:35 AM 55.4 °F 55.4 °F 100% 29.96 in 10.0 mi West 4.6 mph - N/A   Overcast
9:55 AM 55.9 °F 55.8 °F 99% 29.96 in 10.0 mi West 8.1 mph - N/A   Overcast
10:15 AM 57.6 °F 56.5 °F 96% 29.97 in 10.0 mi WSW 4.6 mph - N/A   Overcast
10:35 AM 59.2 °F 55.0 °F 86% 29.96 in 10.0 mi WSW 3.5 mph - N/A   Mostly Cloudy
10:55 AM 59.7 °F 55.6 °F 86% 29.97 in 10.0 mi West 6.9 mph - N/A   Mostly Cloudy
11:15 AM 59.2 °F 54.7 °F 85% 29.97 in 10.0 mi WSW 6.9 mph - N/A   Overcast
11:35 AM 61.9 °F 53.8 °F 75% 29.97 in 10.0 mi SW 5.8 mph - N/A   Mostly Cloudy
11:55 AM 63.0 °F 53.8 °F 72% 29.97 in 10.0 mi SW 5.8 mph - N/A   Mostly Cloudy
12:15 PM 64.6 °F 53.1 °F 66% 29.96 in 10.0 mi SSW 4.6 mph - N/A   Mostly Cloudy
12:35 PM 65.1 °F 51.6 °F 62% 29.96 in 10.0 mi SW 11.5 mph - N/A   Scattered Clouds
12:55 PM 65.5 °F 46.6 °F 50% 29.96 in 10.0 mi SW 11.5 mph 19.6 mph N/A   Scattered Clouds
1:15 PM 66.6 °F 46.8 °F 49% 29.95 in 10.0 mi SW 13.8 mph 18.4 mph N/A   Clear
1:35 PM 66.7 °F 43.5 °F 43% 29.95 in 10.0 mi SW 12.7 mph 19.6 mph N/A   Clear
1:55 PM 67.1 °F 41.9 °F 40% 29.94 in 10.0 mi SW 13.8 mph 19.6 mph N/A   Clear
2:15 PM 67.5 °F 39.4 °F 36% 29.93 in 10.0 mi West 12.7 mph 19.6 mph N/A   Clear
2:35 PM 66.9 °F 44.6 °F 45% 29.93 in 10.0 mi SW 9.2 mph - N/A   Clear
2:55 PM 67.8 °F 40.3 °F 37% 29.93 in 10.0 mi SW 13.8 mph 24.2 mph N/A   Clear
3:15 PM 68.2 °F 41.7 °F 38% 29.93 in 10.0 mi WSW 11.5 mph 21.9 mph N/A   Clear
3:35 PM 67.3 °F 41.9 °F 40% 29.93 in 10.0 mi SSW 10.4 mph - N/A   Clear
3:55 PM 66.4 °F 39.4 °F 37% 29.94 in 10.0 mi SW 13.8 mph 19.6 mph N/A   Clear
4:15 PM 67.8 °F 38.7 °F 34% 29.94 in 10.0 mi WSW 6.9 mph - N/A   Clear
4:35 PM 66.7 °F 39.2 °F 36% 29.95 in 10.0 mi WSW 16.1 mph 19.6 mph N/A   Clear
4:55 PM 66.2 °F 39.9 °F 38% 29.95 in 10.0 mi WSW 17.3 mph 21.9 mph N/A   Clear
5:35 PM 64.6 °F 39.6 °F 40% 29.96 in 10.0 mi SW 10.4 mph - N/A   Clear
5:55 PM 63.0 °F 38.1 °F 40% 29.96 in 10.0 mi WSW 11.5 mph 19.6 mph N/A   Clear
6:15 PM 61.7 °F 38.5 °F 42% 29.96 in 10.0 mi WSW 6.9 mph - N/A   Clear
6:35 PM 59.2 °F 38.8 °F 47% 29.97 in 10.0 mi Calm Calm - N/A   Clear
6:55 PM 54.1 °F 41.0 °F 61% 29.98 in 10.0 mi NW 3.5 mph - N/A   Clear
7:15 PM 52.0 °F 43.2 °F 72% 29.99 in 10.0 mi North 3.5 mph - N/A   Clear
7:35 PM 50.5 °F 43.7 °F 77% 29.99 in 10.0 mi Calm Calm - N/A   Clear
7:55 PM 48.2 °F 43.9 °F 85% 30.00 in 10.0 mi Calm Calm - N/A   Clear
8:15 PM 46.9 °F 43.7 °F 88% 30.01 in 10.0 mi Calm Calm - N/A   Clear
8:35 PM 45.3 °F 43.7 °F 94% 30.02 in 10.0 mi Calm Calm - N/A   Clear
8:55 PM 44.6 °F 43.3 °F 95% 30.03 in 10.0 mi Calm Calm - N/A   Clear
9:15 PM 43.7 °F 43.3 °F 99% 30.04 in 10.0 mi Calm Calm - N/A   Clear
9:35 PM 43.0 °F 43.0 °F 100% 30.04 in 10.0 mi Calm Calm - N/A   Clear
9:55 PM 42.4 °F 42.4 °F 100% 30.05 in 10.0 mi Calm Calm - N/A   Clear
10:15 PM 42.1 °F 42.1 °F 100% 30.06 in 10.0 mi Calm Calm - N/A   Clear
10:35 PM 42.1 °F 42.1 °F 100% 30.06 in 10.0 mi Calm Calm - N/A   Clear
10:55 PM 41.2 °F 41.2 °F 100% 30.07 in 10.0 mi Calm Calm - N/A   Clear
11:15 PM 40.5 °F 40.5 °F 100% 30.08 in 10.0 mi Calm Calm - N/A   Clear
11:35 PM 40.1 °F 40.1 °F 100% 30.08 in 10.0 mi Calm Calm - N/A   Clear
11:55 PM 39.7 °F 39.7 °F 100% 30.09 in 10.0 mi Calm Calm - N/A   Clear